Regional Weather Roundup
Issued by NWS

Home | Current Version | Previous Version | Text Only | Print | Product List | Glossary Off
Versions: 1 2 3 4 5 6 7 8 9 10 11 12 13 14 15 16 17 18 19 20 21 22 23 24 25 26 27 28 29 30 31 32 33 34 35 36 37 38 39 40 41 42 43 44 45 46 47 48 49 50

933
ASUS45 KABQ 181901
RWRNM
NEW MEXICO REGIONAL WEATHER ROUNDUP
NATIONAL WEATHER SERVICE ALBUQUERQUE NM
1200 PM MST SAT NOV 18 2017

NOTE: "FAIR" MEANS FEW OR NO CLOUDS BELOW 12,000 FEET AGL WITH NO
       SIGNIFICANT WEATHER OR OBSTRUCTIONS TO VISION.

      THIS PRODUCT IS RELEASED AS TWO VERSIONS.  ONE VERSION NEAR
      THE TOP OF THE HOUR CONTAINING PRELIMINARY DATA FROM ALBUQUERQUE
      AND OTHER STATIONS.  A FINAL VERSION WITH ADDITIONAL DATA IS
      ISSUED ABOUT 10 MINUTES AFTER THE HOUR.

NMZ501-503-504-510>518-182000-
NORTHWEST PLATEAU/NORTHCENTRAL MOUNTAINS

CITY           SKY/WX    TMP DP  RH WIND       PRES   REMARKS
FARMINGTON     FAIR      40  10  29 SE3       30.36F
LOS ALAMOS     FAIR      40  13  33 E8        30.32F WCI  35
SANTA FE       FAIR      46  13  26 N8        30.31F
TAOS           FAIR      41  -1  17 NW13      30.34F
ANGEL FIRE     FAIR      37   4  25 W14G21    30.29F WCI  28

$$
NMZ402-403-502-505>509-182000-
WESTCENTRAL MOUNTAINS/SOUTHWEST MOUNTAINS

CITY           SKY/WX    TMP DP  RH WIND       PRES   REMARKS
GALLUP         FAIR      41  11  29 CALM      30.36F
GRANTS         FAIR      41   1  18 N6        30.37F
SILVER CITY    FAIR      62  18  18 CALM      30.24F

$$
NMZ407-409-411-412-182000-
SOUTHERN DESERTS

CITY           SKY/WX    TMP DP  RH WIND       PRES   REMARKS
DEMING         FAIR      67  28  23 N7        30.21F
LAS CRUCES     FAIR      62  26  25 N14G21    30.24F
HOLLOMAN AFB   FAIR      62   9  12 NW10G22   30.26F
ALAMOGORDO     FAIR      59   9  13 NW17      30.24F
T OR C         FAIR      57  14  18 E10G17    30.26F

$$
NMZ519>523-182000-
CENTRAL VALLEYS/CENTRAL HIGHLANDS

CITY           SKY/WX    TMP DP  RH WIND       PRES   REMARKS
ALBUQUERQUE    FAIR      47   3  16 N12       30.34F
DOUBLE EAGLE   MOSUNNY   45   7  21 NW15      30.34F
MORIARTY ARPT  FAIR      49  13  24 N6G18     30.32F
CLINES CORNERS NOT AVBL
BELEN          FAIR      49   1  13 NE9G16    30.33F
SOCORRO        FAIR      51   5  15 N15G24    30.31F

$$
NMZ524>526-539-540-182000-
SOUTHCENTRAL MOUNTAINS

CITY           SKY/WX    TMP DP  RH WIND       PRES   REMARKS
RUIDOSO        FAIR      48   5  17 CALM      30.32F

$$
NMZ527>531-182000-
NORTHEAST HIGHLANDS/NORTHEAST PLAINS

CITY           SKY/WX    TMP DP  RH WIND       PRES   REMARKS
LAS VEGAS      FAIR      45  19  35 S14G21    30.28F
RATON          FAIR      45   9  23 VRB6      30.24F
CLAYTON        FAIR      44  15  31 N23G32    30.28F

$$
NMZ532>537-182000-
EASTCENTRAL PLAINS

CITY           SKY/WX    TMP DP  RH WIND       PRES   REMARKS
SANTA ROSA     FAIR      49  19  30 NE5       30.30F
TUCUMCARI      FAIR      53  16  23 N16G24    30.29S
CANNON AFB     FAIR      51  16  25 N22       30.30F
CLOVIS AIRPORT FAIR      50  16  25 N23G32    30.29F

$$
NMZ028-029-538-182000-
SOUTHEAST PLAINS

CITY           SKY/WX    TMP DP  RH WIND       PRES   REMARKS
ROSWELL        FAIR      58  25  28 N20G25    30.29F
ARTESIA        FAIR      57  28  33 N16G26    30.30F
CARLSBAD       FAIR      59  32  36 N18G26    30.27F
HOBBS          SUNNY     57  19  23 N25G31    30.27F


$$




USA.gov is the U.S. government's official web portal to all federal, state and local government web resources and services.